Flag Weather past 2 weeks in Oakville, Ontario, Canada

Now
31 °F

Chilly.


Feels Like: 25 °F
Forecast: 30 / 35 °F
Wind: 7 mph from Southeast

Location: Burlington Piers

Current Time: Nov 27, 2014 at 5:01:00 AM

Latest Report: Nov 27, 2014 at 4:00 AM


Visibility: N/A

Pressure: 30.06 "Hg

Humidity: 78%

Dew point: 25 °F

Location of OakvilleLocation

Historic Weather in Oakville — Graph

°F

Oakville temperature yesterday

Maximum temperature yesterday: 36 °F (at 4:00 PM)
Minimum temperature yesterday: 33 °F (at 3:00 AM)
Average temperature yesterday: 35 °F

Past Weeks' High & Low Weather Summary

 TemperatureHumidityPressure
High64 °F (Nov 24, 12:00 PM)100% (Nov 17, 4:00 AM)30.47 "Hg (Nov 17, 4:00 AM)
Low18 °F (Nov 19, 6:00 AM)45% (Nov 15, 1:00 PM)29.14 "Hg (Nov 24, 12:00 PM)
Average34 °F72%29.99 "Hg
* Reported Nov 12 3:00 AM — Nov 27 3:00 AM, Oakville, Weather by CustomWeather, © 2014

Note: Actual official high and low records may vary slightly from our data, if they occured in-between our weather recording intervals... More about our weather records

Advertising

Oakville weather history for previous 24 hours

 ConditionsComfort  
Time TempWeatherWind HumidityBarometerVisibility
3:00 AM
Nov 27
33 °FChilly.5 mph78%30.07 "HgN/A
2:00 AM35 °FChilly.9 mph64%30.07 "HgN/A
1:00 AM35 °FChilly.9 mph67%30.07 "HgN/A
12:00 AM35 °FChilly.8 mph67%30.08 "HgN/A
11:00 PM
Nov 26
35 °FChilly.9 mph69%30.08 "HgN/A
10:00 PM35 °FChilly.8 mph67%30.09 "HgN/A
9:00 PM35 °FChilly.9 mph68%30.09 "HgN/A
8:00 PM36 °FChilly.14 mph70%30.09 "HgN/A
7:00 PM36 °FChilly.17 mph74%30.09 "HgN/A
6:00 PM36 °FChilly.16 mph71%30.10 "HgN/A
5:00 PM36 °FChilly.17 mph74%30.11 "HgN/A
4:00 PM36 °FChilly.15 mph76%30.11 "HgN/A
3:00 PM36 °FChilly.15 mph76%30.13 "HgN/A
2:00 PM35 °FChilly.13 mph74%30.14 "HgN/A
1:00 PM36 °FChilly.13 mph67%30.15 "HgN/A
12:00 PM36 °FChilly.14 mph66%30.17 "HgN/A
11:00 AM36 °FChilly.14 mph64%30.16 "HgN/A
10:00 AM36 °FChilly.14 mph63%30.18 "HgN/A
9:00 AM36 °FChilly.7 mph67%30.21 "HgN/A
8:00 AM35 °FChilly.7 mph64%30.21 "HgN/A
7:00 AM35 °FChilly.2 mph68%30.19 "HgN/A
6:00 AM35 °FChilly.3 mph68%30.22 "HgN/A
5:00 AM35 °FChilly.3 mph66%30.21 "HgN/A
Weather by CustomWeather, © 2014

See weather overviewHow to use our weather pages